Location: Lixville
(37.5770°N, 89.9118°W)
Time: 17:28:35
(UTC+00:00)

ACS3 Solar Sail - Pass Details

Date: 16 October 2024
Orbit: 962 x 1019 km, 97.5° (Epoch: 08 November)

Event Time Altitude Azimuth Distance (km) Brightness Sun altitude
Exits shadow 01:17:10 44° 69° (ENE) 1,398 2.2 -23.7°
Drops below altitude 10° 01:23:07 10° 2° (N) 2,841 4.3 -24.8°
Sets 01:25:44 0° 356° (N) 3,798 5.0 -25.3°
